Regional Weather Roundup
Issued by NWS Jackson, KY

Home | Current Version | Previous Version | Graphics & Text | Print | Product List | Glossary On
Versions: 1 2 3 4 5 6 7 8 9 10 11 12 13 14 15 16 17 18 19 20 21 22 23 24 25 26 27 28 29 30 31 32 33 34 35 36 37 38 39 40 41 42 43 44 45 46 47 48 49 50
000
ASUS43 KJKL 260110
RWRJKL

EAST KENTUCKY HOURLY WEATHER ROUNDUP
NATIONAL WEATHER SERVICE JACKSON KY
900 PM EDT MON JUL 25 2016

NOTE: "FAIR" INDICATES FEW OR NO CLOUDS BELOW 12,000 FEET WITH
NO SIGNIFICANT WEATHER AND/OR OBSTRUCTIONS TO VISIBILITY.

* THESE REPORTS ARE NOT UNDER NWS QUALITY CONTROL AND MAY NOT
  REPORT WEATHER SUCH AS PRECIPITATION AND FOG.

KYZ079-080-083-085-087-088-110-112-115-119-120-260200
...EASTERN KENTUCKY...

CITY           SKY/WX    TMP DP  RH WIND       PRES   REMARKS
JACKSON        CLOUDY    76  72  87 CALM      30.05R
LONDON         CLOUDY    78  71  79 SW9       30.07R THUNDER
SOMERSET*      LGT RAIN  72  72 100 E3        30.04F
MONTICELLO*    PTCLDY   N/A N/A N/A VRB7      30.06R
WILLIAMSBURG*  CLOUDY    81  73  78 N14G20    30.06R
MIDDLESBORO*   MOCLDY    81  72  75 CALM      30.07R
HARLAN APT*      N/A     77  70  78 CALM      30.07S
PIKE CO APT*     N/A     75  74  96 CALM      30.07R
BIG SANDY APT* CLOUDY    78  74  89 CALM      30.04S
MOREHEAD APT*  CLOUDY    75  73  94 S6        30.04R
ASHLAND*       CLOUDY    75  73  94 W3        29.98R
$$

KYZ035-036-041-042-044-050-067-078-099-260200
...CENTRAL KENTUCKY...

CITY           SKY/WX    TMP DP  RH WIND       PRES   REMARKS
MT STERLING*   MOCLDY    79  75  89 CALM      30.04S
FLEMING/MASON* CLOUDY    77  74  92 S3        30.03R
DANVILLE*      CLOUDY    73  73 100 CALM      30.05S
RICHMOND*      CLOUDY    77  72  83 SW7       30.04R
LEXINGTON      CLOUDY    77  71  82 SW3       30.03R
FRANKFORT      MOCLDY    77  70  79 CALM      30.01R
LOUISVILLE     CLOUDY    79  73  82 CALM      29.98F
LEBANON*         N/A     75  73  94 CALM      30.02F
GLASGOW*       CLOUDY    77  73  86 CALM      30.01S
BOWLING GREEN  CLOUDY    76  73  91 SE5       30.00S
$$

KYZ091>093-OHZ055-061-077-WVZ005-015-034-035-042-260200
...SOUTHERN OHIO/WEST VIRGINIA...

CITY           SKY/WX    TMP DP  RH WIND       PRES   REMARKS
COVINGTON      CLOUDY    81  76  84 CALM      30.00R
COLUMBUS       MOCLDY    84  66  54 NW7       29.96R
DAYTON         CLOUDY    82  71  69 W7        30.00R
WILMINGTON     PTCLDY    84  69  60 W7        29.99R
HUNTINGTON       N/A     79  73  82 W3        30.00R
CHARLESTON     MOCLDY    84  74  71 CALM      29.99S HX  91
PINEVILLE*     DRIZZLE   76  67  76 MISG      30.11S
BECKLEY        TSTM      74  67  78 S7        30.12R
BLUEFIELD        N/A     77  68  73 W3        30.13S
LOGAN CO APT*    N/A     77  73  88 CALM      30.05R
$$

VAZ002-007-008-TNZ017-027-036-066-071-260200
...SOUTHWEST VIRGINIA/EAST TENNESSEE...

CITY           SKY/WX    TMP DP  RH WIND       PRES   REMARKS
WISE*          CLOUDY    72  70  94 SW3       30.15S
JONESVILLE*      N/A     77  73  88 CALM      30.07S
ABINGDON*      MOCLDY    82  69  65 NW3       30.10R
BRISTOL        CLOUDY    85  70  60 NW8       30.05R
MORRISTOWN*    PTCLDY    86  72  62 NE5       30.03S HX  92
SEVIERVILLE*   MOCLDY    82  73  74 CALM      30.01S
KNOXVILLE      CLOUDY    90  67  46 W6        30.01R HX  93
OAK RIDGE      CLEAR     89  70  53 CALM      30.03R HX  94
CROSSVILLE     PTCLDY    79  70  74 S3        30.09R
NASHVILLE      MOCLDY    87  72  60 E5        30.00R HX  93
$$

...KEY TO REMARKS...
VSB - VISIBILITY IN MILES
WCI - WIND CHILL INDEX
HX  - HEAT INDEX

$$



USA.gov is the U.S. government's official web portal to all federal, state and local government web resources and services.